ECHOSTAR 18

Last updated on Dec. 14, 2019, 4:30 a.m. UTC

1 41592U 16039B   19347.90965785 -.00000266  00000-0  00000-0 0  9998
2 41592   0.0181  13.7078 0001665 263.9029  70.8234  1.00273584 12791
UTC
Height (km)
Latitude
Longitude
Inclination
Orbital Period
UTC large
Height (km)
Speed (km/s)
/
Latitude / Longitude
Inclination (degrees)
Orbital Period (minutes)
Azimuth
Elevation
Range (km)
Doppler Factor
iOS Compass Heading
iOS Angle

Next 30 passes for location: Hong Kong

Rise time Rise Azimuth (degrees) Set time Set Azimuth (degrees) Duration Max altitude (degrees)

No matching passes for this satellites